IRNSS-1I (43286 NORAD) Tracking and Keplerian Element Data

This shows tracking and keplerian element data for the satellite.

Feedback or suggestion? Click here.




ElementValue
Catalog43286
NameIRNSS-1I
Epoch Orbit1138
Epoch Day129.52312191
Epoch Year2021
RAAN103.9735
Inclination29.0093
Eccentricity0.0019654
Argument of Perigee188.626
Mean Anonmoly178.3073
Mean Motion1.00275844
Decay Rate1.21E-06
L11 43286U 18035A 21129.52312191 .00000121 00000-0 00000-0 0 9993
L22 43286 29.0093 103.9735 0019654 188.6260 178.3073 1.00275844 11385

Live tracking and technical data element details for IRNSS-1I (NORAD 43286). IRNSS-1I can be tracked NOW for your location showing map with azimuth and elevation plus other details from your city location.

Track the satellite on the map from your city or location and see movement details for azimuth, elevation, latitude, longitude, range, height, and movement on the map or in text.







IsCatalogInMostPopularTable: catalog: 43286, numindb: 3423
Update: records affected: 1



GetName: 43286 IRNSS-1I

Hit Count: updated at: Tue, 11 May 2021 18:58:18 GMT